When you browse on this site, cookies collect data to enhance your experience and personalize the content and advertising you see.
Visit our Privacy Policy to learn more. By continuing to use the site, you agree to this use of cookies and data.
  • In Spain
  • List of Countries
  • For 7 days
  • Water Temperature
  • Weather Map
  • Weather Widgets
  • user-avatar
    Login

    Hourly Weather Shymkent

    Today, 11 November, Monday

    Time Temperature Precipitation Wind Pressure Humidity
    00:00 +4°C° 0 mm 1 mps 727 mmHg 73%
    01:00 +4°C° 0 mm 1 mps 727 mmHg 73%
    02:00 +4°C° 0 mm 1 mps 727 mmHg 72%
    03:00 +2°C° 0 mm 2 mps 727 mmHg 71%
    04:00 +2°C° 0 mm 2 mps 727 mmHg 69%
    05:00 +2°C° 0 mm 2 mps 728 mmHg 67%
    06:00 +2°C° 0 mm 2 mps 728 mmHg 64%
    07:00 +3°C° 0 mm 1 mps 728 mmHg 60%
    08:00 +3°C° 0 mm 1 mps 728 mmHg 57%
    09:00 +5°C° 0 mm 1 mps 728 mmHg 50%
    10:00 +6°C° 0 mm 2 mps 728 mmHg 42%
    11:00 +9°C° 0 mm 2 mps 729 mmHg 35%
    12:00 +10°C° 0 mm 2 mps 728 mmHg 32%
    13:00 +12°C° 0 mm 2 mps 728 mmHg 29%
    14:00 +13°C° 0 mm 2 mps 728 mmHg 25%
    15:00 +10°C° 0 mm 3 mps 727 mmHg 29%
    16:00 +9°C° 0 mm 3 mps 727 mmHg 32%
    17:00 +8°C° 0 mm 3 mps 727 mmHg 37%
    18:00 +7°C° 0 mm 3 mps 727 mmHg 40%
    19:00 +5°C° 0 mm 3 mps 726 mmHg 44%
    20:00 +4°C° 0 mm 3 mps 726 mmHg 47%
    21:00 +3°C° 0 mm 3 mps 726 mmHg 47%
    22:00 +3°C° 0 mm 3 mps 725 mmHg 48%
    23:00 +3°C° 0 mm 3 mps 725 mmHg 48%

    Tomorrow, 12 November, Tuesday

    Time Temperature Precipitation Wind Pressure Humidity
    00:00 +3°C° 0 mm 3 mps 725 mmHg 47%
    01:00 +3°C° 0 mm 3 mps 724 mmHg 45%
    02:00 +3°C° 0 mm 3 mps 724 mmHg 44%
    03:00 +4°C° 0 mm 2 mps 724 mmHg 42%
    04:00 +4°C° 0 mm 2 mps 724 mmHg 41%
    05:00 +4°C° 0 mm 2 mps 724 mmHg 39%
    06:00 +4°C° 0 mm 2 mps 724 mmHg 38%
    07:00 +4°C° 0 mm 2 mps 724 mmHg 36%
    08:00 +4°C° 0 mm 2 mps 724 mmHg 35%
    09:00 +7°C° 0 mm 2 mps 724 mmHg 31%
    10:00 +9°C° 0 mm 2 mps 724 mmHg 27%
    11:00 +12°C° 0 mm 2 mps 724 mmHg 22%
    12:00 +13°C° 0 mm 2 mps 724 mmHg 21%
    13:00 +14°C° 0 mm 2 mps 723 mmHg 20%
    14:00 +15°C° 0 mm 2 mps 723 mmHg 19%
    15:00 +13°C° 0 mm 2 mps 723 mmHg 22%
    16:00 +12°C° 0 mm 2 mps 723 mmHg 26%
    17:00 +10°C° 0 mm 1 mps 723 mmHg 29%
    18:00 +8°C° 0 mm 2 mps 722 mmHg 32%
    19:00 +7°C° 0 mm 2 mps 722 mmHg 35%
    20:00 +6°C° 0 mm 2 mps 722 mmHg 38%
    21:00 +6°C° 0 mm 2 mps 722 mmHg 38%
    22:00 +6°C° 0 mm 2 mps 722 mmHg 39%
    23:00 +5°C° 0 mm 2 mps 722 mmHg 39%

    Day after tomorrow, 13 November, Wednesday

    Time Temperature Precipitation Wind Pressure Humidity
    00:00 +6°C° 0 mm 1 mps 721 mmHg 39%
    01:00 +6°C° 0 mm 1 mps 721 mmHg 38%
    02:00 +6°C° 0 mm 1 mps 721 mmHg 38%
    03:00 +6°C° 0 mm 1 mps 721 mmHg 37%
    04:00 +6°C° 0 mm 1 mps 721 mmHg 36%
    05:00 +5°C° 0 mm 1 mps 721 mmHg 35%
    06:00 +6°C° 0 mm 1 mps 721 mmHg 33%
    07:00 +6°C° 0 mm 1 mps 721 mmHg 32%
    08:00 +6°C° 0 mm 1 mps 721 mmHg 31%
    09:00 +8°C° 0 mm 1 mps 721 mmHg 28%
    10:00 +10°C° 0 mm 1 mps 721 mmHg 24%
    11:00 +12°C° 0 mm 1 mps 722 mmHg 21%
    12:00 +13°C° 0 mm 1 mps 721 mmHg 20%
    13:00 +14°C° 0 mm 2 mps 721 mmHg 19%
    14:00 +15°C° 0 mm 2 mps 720 mmHg 18%
    15:00 +13°C° 0 mm 1 mps 720 mmHg 21%
    16:00 +12°C° 0 mm 1 mps 720 mmHg 24%
    17:00 +10°C° 0 mm 1 mps 720 mmHg 27%
    18:00 +10°C° 0 mm 1 mps 720 mmHg 29%
    19:00 +8°C° 0 mm 0 mps 720 mmHg 31%
    20:00 +7°C° 0 mm 0 mps 720 mmHg 32%
    21:00 +8°C° 0 mm 1 mps 720 mmHg 33%
    22:00 +8°C° 0 mm 1 mps 720 mmHg 33%
    23:00 +7°C° 0 mm 1 mps 720 mmHg 33%

    14 November, Thursday

    Time Temperature Precipitation Wind Pressure Humidity
    00:00 +7°C° 0 mm 1 mps 720 mmHg 34%
    01:00 +7°C° 0 mm 1 mps 720 mmHg 34%
    02:00 +7°C° 0 mm 1 mps 720 mmHg 34%
    03:00 +6°C° 0 mm 1 mps 720 mmHg 35%
    04:00 +6°C° 0 mm 1 mps 720 mmHg 35%
    05:00 +6°C° 0 mm 1 mps 720 mmHg 35%
    06:00 +7°C° 0 mm 1 mps 720 mmHg 34%
    07:00 +6°C° 0 mm 2 mps 720 mmHg 34%
    08:00 +6°C° 0 mm 2 mps 720 mmHg 33%
    09:00 +8°C° 0 mm 2 mps 720 mmHg 30%
    10:00 +12°C° 0 mm 2 mps 720 mmHg 26%
    11:00 +13°C° 0 mm 3 mps 721 mmHg 23%
    12:00 +14°C° 0 mm 3 mps 720 mmHg 23%
    13:00 +14°C° 0 mm 3 mps 720 mmHg 23%
    14:00 +16°C° 0 mm 3 mps 720 mmHg 22%
    15:00 +13°C° 0 mm 3 mps 720 mmHg 26%
    16:00 +13°C° 0 mm 2 mps 720 mmHg 29%
    17:00 +12°C° 0 mm 1 mps 720 mmHg 32%
    18:00 +11°C° 0 mm 1 mps 720 mmHg 33%
    19:00 +11°C° 0 mm 1 mps 720 mmHg 33%
    20:00 +9°C° 0 mm 0 mps 720 mmHg 34%
    21:00 +9°C° 0 mm 0 mps 720 mmHg 35%
    22:00 +9°C° 0 mm 1 mps 720 mmHg 36%
    23:00 +9°C° 0 mm 1 mps 720 mmHg 38%

    15 November, Friday

    Time Temperature Precipitation Wind Pressure Humidity
    00:00 +9°C° 0 mm 1 mps 720 mmHg 38%
    01:00 +9°C° 0 mm 1 mps 720 mmHg 38%
    02:00 +8°C° 0 mm 2 mps 720 mmHg 39%
    03:00 +9°C° 0 mm 1 mps 720 mmHg 40%
    04:00 +9°C° 0 mm 1 mps 720 mmHg 41%
    05:00 +8°C° 0 mm 1 mps 720 mmHg 43%
    06:00 +8°C° 0 mm 1 mps 721 mmHg 43%
    07:00 +9°C° 0 mm 1 mps 721 mmHg 44%
    08:00 +9°C° 0 mm 1 mps 721 mmHg 45%
    09:00 +11°C° 0 mm 1 mps 722 mmHg 40%
    10:00 +12°C° 0 mm 1 mps 722 mmHg 34%
    11:00 +14°C° 0 mm 1 mps 723 mmHg 29%
    12:00 +15°C° 0 mm 2 mps 722 mmHg 28%
    13:00 +15°C° 0 mm 2 mps 722 mmHg 26%
    14:00 +16°C° 0 mm 2 mps 722 mmHg 25%
    15:00 +15°C° 0 mm 2 mps 722 mmHg 28%
    16:00 +13°C° 0 mm 2 mps 722 mmHg 30%
    17:00 +12°C° 0 mm 2 mps 722 mmHg 33%
    18:00 +11°C° 0 mm 1 mps 722 mmHg 35%
    19:00 +11°C° 0 mm 1 mps 722 mmHg 37%
    20:00 +10°C° 0 mm 1 mps 722 mmHg 38%
    21:00 +9°C° 0 mm 1 mps 722 mmHg 40%
    22:00 +9°C° 0 mm 1 mps 722 mmHg 41%
    23:00 +8°C° 0 mm 2 mps 722 mmHg 43%

    16 November, Saturday

    Time Temperature Precipitation Wind Pressure Humidity
    00:00 +7°C° 0 mm 2 mps 723 mmHg 44%
    01:00 +8°C° 0 mm 1 mps 723 mmHg 45%
    02:00 +8°C° 0 mm 1 mps 723 mmHg 45%
    03:00 +7°C° 0 mm 1 mps 723 mmHg 46%
    04:00 +7°C° 0 mm 1 mps 723 mmHg 46%
    05:00 +7°C° 0 mm 1 mps 723 mmHg 46%
    06:00 +7°C° 0 mm 1 mps 723 mmHg 46%
    07:00 +7°C° 0 mm 1 mps 723 mmHg 45%
    08:00 +7°C° 0 mm 1 mps 723 mmHg 44%
    09:00 +9°C° 0 mm 1 mps 724 mmHg 40%
    10:00 +12°C° 0 mm 1 mps 724 mmHg 35%
    11:00 +14°C° 0 mm 1 mps 724 mmHg 30%
    12:00 +15°C° 0 mm 1 mps 724 mmHg 29%
    13:00 +15°C° 0 mm 2 mps 724 mmHg 29%
    14:00 +16°C° 0 mm 2 mps 724 mmHg 28%
    15:00 +14°C° 0 mm 2 mps 724 mmHg 30%
    16:00 +13°C° 0 mm 1 mps 724 mmHg 33%
    17:00 +11°C° 0 mm 1 mps 724 mmHg 36%
    18:00 +11°C° 0 mm 1 mps 724 mmHg 37%
    19:00 +10°C° 0 mm 1 mps 724 mmHg 39%
    20:00 +8°C° 0 mm 0 mps 724 mmHg 41%
    21:00 +9°C° 0 mm 1 mps 724 mmHg 42%
    22:00 +8°C° 0 mm 1 mps 724 mmHg 43%
    23:00 +8°C° 0 mm 1 mps 725 mmHg 43%
    Show more